SCP
0 0 0 0 0 0 0 0 0 0 0 0 0 0 0 0 0 0 0 0 0 0 0 0 0 0 0
0 0 0 0 0 0 0 0 0 0 0 0 0 0 0 0 0 0 0 0 0 0 0 0 0 0 0
0 0 0 0 0 0 0 0 0 0 0 0 0 0 0 0 0 0 0 0 0 0 0 0 0 0 0
0 0 0 0 0 0 0 0 0 0 0 0 0 0 0 0 0 0 0 0 0 0 0 0 0 0 0
0 0 0 0 0 0 0 0 0 0 0 0 0 0 0 0 0 0 0 0 0 0 0 0 0 0 0
0 0 0 0 0 0 0 0 0 0 0 0 0 0 0 0 0 0 0 0 0 0 0 0 0 0 0
0 0 0 0 0 0 0 0 0 0 0 0 0 0 0 0 0 0 0 0 0 0 0 0 0 0 0
0 0 0 0 0 0 0 0 0 0 0 0 0 0 0 0 0 -0 -0 -0 0 0 0 0 0 0 0
0 0 0 0 0 0 0 0 0 0 0 0 0 0 0 0 -0 -0 -0 -0 -0 0 0 0 0 0 0
0 0 0 0 0 0 0 0 0 0 0 0 0 0 0 0 0 0 -0 -0 -0 -0 -0 0 0 0 0
0 0 0 0 0 0 0 0 0 0 0 0 0 0 0 0 0 0 0 -0 -0 -0 -0 0 -0 -0 -0
0 0 0 0 0 0 0 0 0 0 0 0 0 0 0 0 0 0 0 0 -0 -0 -0 -0 -0 -0 -0
0 0 0 0 0 0 0 0 0 0 0 0 0 -0 -0 0 0 0 0 0 0 0 -0 -0 -0 -0 -0
0 0 0 0 0 0 0 0 0 0 0 0 0 -0 0 0 0 0 0 0 -0 -0 -0 -0 -0 -0 -0
0 0 0 0 0 0 0 0 0 0 0 0 -0 -0 0 0 0 0 0 0 0 0 -0 -0 -0 0 -0
0 0 0 0 0 0 0 0 0 0 0 0 0 0 0 0 0 0 0 0 0 0 0 0 0 0 0
Wind_Speed_500mb
12 14 13 13 13 14 15 16 19 22 26 29 31 35 38 39 42 45 46 48 51 53 56 55 56 57 56
16 14 12 11 10 11 13 16 18 22 25 29 31 33 37 41 45 47 47 49 50 51 57 60 60 57 57
18 14 12 9 7 6 8 10 15 19 22 25 29 33 36 38 40 42 45 48 47 51 55 56 58 59 65
22 17 15 12 8 6 7 10 14 18 23 27 31 34 35 37 37 39 40 41 44 47 50 51 57 62 63
24 21 17 11 8 7 8 12 16 21 26 32 37 39 39 40 41 42 42 41 40 42 45 47 50 54 62
25 21 16 13 10 9 12 15 20 24 30 35 39 43 43 43 44 46 48 50 51 49 47 47 48 52 57
28 22 20 17 14 14 15 18 22 28 34 38 41 44 45 47 49 49 51 52 53 56 59 59 56 54 55
31 28 25 21 18 16 17 19 24 31 35 40 45 48 50 52 54 56 57 58 59 61 59 60 64 66 65
37 34 28 23 19 16 17 22 27 31 35 38 43 47 50 53 58 61 63 64 65 66 69 70 71 71 73
43 38 31 25 21 18 19 22 26 31 36 40 44 46 47 52 58 61 65 68 71 74 77 76 78 80 81
46 39 32 27 22 18 18 21 27 32 37 41 44 47 48 54 58 62 65 69 74 78 79 83 87 86 85
47 40 35 31 28 22 19 23 28 33 39 43 45 48 50 56 60 64 67 70 73 75 85 94 90 93 85
52 45 43 38 33 27 24 24 28 34 40 46 47 48 52 58 62 64 67 69 70 75 86 93 104 63 62
56 51 49 44 38 31 26 27 31 37 42 45 46 47 53 59 61 63 66 70 70 66 69 72 53 96 36
61 58 54 49 42 34 30 33 35 38 42 44 44 47 54 60 64 67 70 70 69 68 60 44 35 36 96
69 64 60 53 44 38 35 36 37 38 41 42 43 49 56 62 65 68 69 70 70 71 62 60 54 59 40
Wind_Direction_500mb
270 278 288 300 309 316 324 331 331 329 326 322 317 311 308 302 297 291 288 283 278 273 270 269 272 273 272
256 262 272 284 302 320 333 335 332 328 324 321 319 314 313 312 308 303 297 289 283 279 276 273 268 268 271
240 240 243 245 260 291 316 327 327 326 324 321 320 322 322 318 315 312 308 305 299 290 282 279 276 270 268
228 230 230 235 247 280 314 331 336 334 332 327 325 325 324 323 322 317 314 309 306 302 296 290 282 278 275
222 223 227 238 263 289 316 326 332 337 337 335 331 328 326 326 325 324 323 320 319 314 309 302 294 286 279
223 229 236 243 250 274 297 318 330 334 337 334 330 326 325 325 326 326 325 324 321 319 315 310 304 297 290
226 229 237 247 262 283 304 316 327 332 331 329 327 324 325 329 330 328 325 323 321 319 318 315 310 303 297
227 232 238 245 259 277 299 317 325 326 326 326 326 324 325 327 328 326 324 322 321 318 314 312 310 307 302
226 232 234 242 256 281 304 314 321 326 323 319 318 320 323 327 326 325 323 322 320 318 317 315 311 309 306
226 229 231 239 253 272 297 314 320 316 313 315 317 318 322 323 323 322 321 321 320 320 318 316 313 311 307
227 228 231 236 244 260 282 304 309 309 312 315 316 315 322 325 324 322 322 322 322 321 318 316 314 310 308
227 228 229 235 240 253 275 298 306 309 312 311 311 316 326 327 326 323 323 323 323 321 318 317 315 312 310
226 227 229 233 238 250 268 291 301 305 306 308 312 321 326 323 320 320 320 321 320 320 321 317 318 326 313
229 231 232 233 238 250 268 286 294 299 302 308 314 324 323 319 318 318 319 320 320 321 322 326 323 315 307
229 231 232 234 241 253 268 282 290 298 306 312 314 321 318 316 317 317 317 317 314 313 314 310 315 298 311
230 231 233 235 241 252 264 278 290 301 307 307 312 318 316 315 314 312 311 309 308 306 304 300 288 285 300
Wind_Speed_850mb
12 14 13 13 13 14 15 16 19 22 26 29 31 35 38 39 42 45 46 48 51 53 56 55 56 57 56
16 14 12 11 10 11 13 16 18 22 25 29 31 33 37 41 45 47 47 49 50 51 57 60 60 57 57
18 14 12 9 7 6 8 10 15 19 22 25 29 33 36 38 40 42 45 48 47 51 55 56 58 59 65
22 17 15 12 8 6 7 10 14 18 23 27 31 34 35 37 37 39 40 41 44 47 50 51 57 62 63
24 21 17 11 8 7 8 12 16 21 26 32 37 39 39 40 41 42 42 41 40 42 45 47 50 54 62
25 21 16 13 10 9 12 15 20 24 30 35 39 43 43 43 44 46 48 50 51 49 47 47 48 52 57
28 22 20 17 14 14 15 18 22 28 34 38 41 44 45 47 49 49 51 52 53 56 59 59 56 54 55
31 28 25 21 18 16 17 19 24 31 35 40 45 48 50 52 54 56 57 58 59 61 59 60 64 66 65
37 34 28 23 19 16 17 22 27 31 35 38 43 47 50 53 58 61 63 64 65 66 69 70 71 71 73
43 38 31 25 21 18 19 22 26 31 36 40 44 46 47 52 58 61 65 68 71 74 77 76 78 80 81
46 39 32 27 22 18 18 21 27 32 37 41 44 47 48 54 58 62 65 69 74 78 79 83 87 86 85
47 40 35 31 28 22 19 23 28 33 39 43 45 48 50 56 60 64 67 70 73 75 85 94 90 93 85
52 45 43 38 33 27 24 24 28 34 40 46 47 48 52 58 62 64 67 69 70 75 86 93 104 63 62
56 51 49 44 38 31 26 27 31 37 42 45 46 47 53 59 61 63 66 70 70 66 69 72 53 96 36
61 58 54 49 42 34 30 33 35 38 42 44 44 47 54 60 64 67 70 70 69 68 60 44 35 36 96
69 64 60 53 44 38 35 36 37 38 41 42 43 49 56 62 65 68 69 70 70 71 62 60 54 59 40
Wind_Direction_850mb
270 278 288 300 309 316 324 331 331 329 326 322 317 311 308 302 297 291 288 283 278 273 270 269 272 273 272
256 262 272 284 302 320 333 335 332 328 324 321 319 314 313 312 308 303 297 289 283 279 276 273 268 268 271
240 240 243 245 260 291 316 327 327 326 324 321 320 322 322 318 315 312 308 305 299 290 282 279 276 270 268
228 230 230 235 247 280 314 331 336 334 332 327 325 325 324 323 322 317 314 309 306 302 296 290 282 278 275
222 223 227 238 263 289 316 326 332 337 337 335 331 328 326 326 325 324 323 320 319 314 309 302 294 286 279
223 229 236 243 250 274 297 318 330 334 337 334 330 326 325 325 326 326 325 324 321 319 315 310 304 297 290
226 229 237 247 262 283 304 316 327 332 331 329 327 324 325 329 330 328 325 323 321 319 318 315 310 303 297
227 232 238 245 259 277 299 317 325 326 326 326 326 324 325 327 328 326 324 322 321 318 314 312 310 307 302
226 232 234 242 256 281 304 314 321 326 323 319 318 320 323 327 326 325 323 322 320 318 317 315 311 309 306
226 229 231 239 253 272 297 314 320 316 313 315 317 318 322 323 323 322 321 321 320 320 318 316 313 311 307
227 228 231 236 244 260 282 304 309 309 312 315 316 315 322 325 324 322 322 322 322 321 318 316 314 310 308
227 228 229 235 240 253 275 298 306 309 312 311 311 316 326 327 326 323 323 323 323 321 318 317 315 312 310
226 227 229 233 238 250 268 291 301 305 306 308 312 321 326 323 320 320 320 321 320 320 321 317 318 326 313
229 231 232 233 238 250 268 286 294 299 302 308 314 324 323 319 318 318 319 320 320 321 322 326 323 315 307
229 231 232 234 241 253 268 282 290 298 306 312 314 321 318 316 317 317 317 317 314 313 314 310 315 298 311
230 231 233 235 241 252 264 278 290 301 307 307 312 318 316 315 314 312 311 309 308 306 304 300 288 285 300